Flag for Canada Weather past 2 weeks in Conception Bay South, Newfoundland and Labrador, Canada

Now
48 °F

Passing clouds.


Feels Like: 40 °F
Forecast: 44 / 52 °F
Wind: 25 mph from Southwest

Location: St. John's

Current Time: Oct 20, 2014 at 10:38:34 PM

Latest Report: Oct 20, 2014 at 9:30 PM


Visibility: 15 mi

Pressure: 29.70 "Hg

Humidity: 76%

Dew point: 41 °F

Location of Conception Bay SouthLocation

Historic Weather in Conception Bay South — Graph

°F

Conception Bay South temperature yesterday

Maximum temperature yesterday: 68 °F (at 1:30 PM)
Minimum temperature yesterday: 52 °F (at 9:30 PM)
Average temperature yesterday: 58 °F

Past Weeks' High & Low Weather Summary

 TemperatureHumidityPressure
High68 °F (Oct 6, 2:30 PM)100% (Oct 5, 8:30 PM)30.35 "Hg (Oct 5, 8:30 PM)
Low36 °F (Oct 17, 4:30 AM)55% (Oct 10, 1:30 PM)29.11 "Hg (Oct 19, 7:30 AM)
Average52 °F89%29.98 "Hg
* Reported Oct 5 8:30 PM — Oct 20 8:30 PM, Conception Bay South, Weather by CustomWeather, © 2014

Note: Actual official high and low records may vary slightly from our data, if they occured in-between our weather recording intervals... More about our weather records

Advertising

Conception Bay South weather history for previous 24 hours

 ConditionsComfort  
Time TempWeatherWind HumidityBarometerVisibility
8:30 PM
Oct 20
48 °FPassing clouds.23 mph82%29.68 "Hg15 mi
7:30 PM48 °FPassing clouds.29 mph82%29.66 "Hg15 mi
6:30 PM50 °FPassing clouds.31 mph82%29.62 "Hg15 mi
5:30 PM52 °FPassing clouds.26 mph82%29.59 "Hg15 mi
4:30 PM55 °FPassing clouds.26 mph77%29.57 "Hg15 mi
3:30 PM57 °FScattered clouds.28 mph77%29.55 "Hg15 mi
2:30 PM59 °FScattered clouds.26 mph82%29.53 "Hg15 mi
1:30 PM61 °FScattered clouds.25 mph88%29.52 "Hg15 mi
12:30 PM63 °FSprinkles. Overcast.29 mph94%29.51 "Hg15 mi
12:17 PM63 °FMostly cloudy.25 mph94%29.51 "Hg15 mi
11:30 AM63 °FPartly sunny.25 mph94%29.51 "Hg15 mi
11:19 AM63 °FMostly cloudy.30 mph94%29.54 "Hg15 mi
10:30 AM63 °FLow clouds.26 mph94%29.55 "Hg12 mi
9:30 AM61 °FDrizzle. Fog.25 mph100%29.60 "Hg1 mi
9:16 AM61 °FDrizzle. Fog.25 mph100%29.61 "Hg4 mi
8:30 AM59 °FDrizzle. Fog.21 mph100%29.63 "Hg0 mi
7:30 AM59 °FLight rain. Fog.23 mph100%29.67 "Hg1 mi
6:30 AM57 °FLight rain. Fog.22 mph100%29.70 "Hg4 mi
5:30 AM57 °FLight rain. Fog.21 mph100%29.74 "Hg1 mi
4:30 AM59 °FMostly cloudy.21 mph94%29.77 "Hg8 mi
4:17 AM57 °FFog.18 mph100%29.77 "Hg6 mi
3:30 AM57 °FFog.18 mph100%29.79 "Hg1 mi
3:24 AM57 °FFog.21 mph100%29.79 "Hg1 mi
2:30 AM57 °FLight rain. Low clouds.23 mph100%29.82 "Hg8 mi
12:30 AM55 °FPartly cloudy.16 mph94%29.85 "Hg15 mi
11:30 PM
Oct 19
54 °FPassing clouds.16 mph94%29.85 "Hg15 mi
10:30 PM52 °FPassing clouds.13 mph100%29.87 "Hg15 mi
Weather by CustomWeather, © 2014

See weather overviewHow to use our weather pages